[[{"header":{"parameterUnit":"m.s-1","parameterCategory":1,"la1":30.2992,"la2":30.254,"lo1":-89.0895,"lo2":-89.0443,"dy":0.0025,"dx":0.0025,"nx":19,"ny":19,"refTime":"2026-03-25T03:00:00:Z","depth":0,"parameterNumber":2,"parameterNumberName":"U-component_of_WINDS"},"data":[0,0,0,-2.5631,-2.5633,-2.5763,-2.5763,-2.5933,-2.5935,0,0,0,0,0,0,0,0,0,0,0,-2.5592,-2.5593,-2.563,-2.5634,-2.5763,-2.5763,-2.5933,-2.5935,0,0,0,0,0,0,0,0,0,0,0,-2.5592,-2.5593,-2.5594,-2.5634,-2.5763,-2.5763,-2.5932,-2.5834,0,0,0,0,0,0,0,0,0,0,-2.5708,-2.5671,-2.5593,-2.5594,-2.5635,-2.5762,-2.5763,-2.5829,-2.584,-2.5875,0,-2.5904,0,-2.5922,-2.5946,-2.5947,0,0,0,-2.5634,-2.5662,-2.5697,-2.5595,-2.5636,-2.5762,-2.5705,-2.5835,-2.5848,-2.589,-2.5907,-2.5913,-2.5925,-2.5947,-2.5948,-2.6144,-2.6145,0,0,-2.5627,-2.5616,-2.5689,-2.5705,-2.5682,-2.5701,-2.5709,-2.5843,-2.5861,-2.5907,-2.5917,-2.5928,-2.5948,-2.5949,-2.6143,-2.6144,0,0,0,-2.5606,-2.5611,-2.5642,-2.5698,-2.5721,-2.5704,-2.5714,-2.5855,-2.5866,-2.5919,-2.593,-2.5949,-2.5951,-2.6142,-2.6143,-2.6174,0,0,0,-2.5602,-2.5599,-2.5639,-2.5634,-2.5718,-2.5789,-2.5723,-2.5857,-2.5873,-2.5929,-2.5949,-2.5953,-2.6141,-2.6143,-2.6171,-2.6191,0,0,0,-2.5584,-2.5596,-2.5615,-2.5633,-2.5688,-2.5787,-2.5806,-2.5861,-2.5879,-2.5947,-2.5953,-2.614,-2.6142,-2.6169,-2.6187,-2.6239,0,0,0,-2.5562,-2.5641,-2.5615,-2.5709,-2.5686,-2.5805,-2.5805,-2.5895,-2.5956,-2.595,-2.6141,-2.6143,-2.6168,-2.6184,-2.6236,-2.628,-2.6297,0,0,-2.5656,-2.5652,-2.5709,-2.5689,-2.5808,-2.5786,-2.5912,-2.598,-2.5999,-2.6095,-2.61,-2.6172,-2.6186,-2.6238,-2.6399,-2.6413,0,0,0,-2.5735,-2.5775,-2.5809,-2.5866,-2.5919,-2.5967,-2.6017,-2.6043,-2.6125,-2.6045,-2.6206,-2.6215,-2.6246,-2.6267,-2.6279,-2.6307,-2.6153,-2.6153,-2.6152,-2.5851,-2.5869,-2.5963,-2.5997,-2.6053,-2.6104,-2.6152,-2.6196,-2.6198,-2.6236,-2.6265,-2.636,-2.6385,-2.6393,-2.6422,-2.629,-2.629,-2.629,-2.629,-2.5991,-2.605,-2.6052,-2.6143,-2.6163,-2.6242,-2.6296,-2.6295,-2.6372,-2.634,-2.6368,-2.633,-2.6408,-2.6434,-2.6293,-2.6293,-2.6292,-2.6292,-2.6292,-2.6068,-2.61,-2.6129,-2.6214,-2.6278,-2.6311,-2.6385,-2.6401,-2.6417,-2.6445,-2.6477,-2.6477,-2.6478,-2.6459,-2.646,-2.646,-2.646,-2.6461,-2.6461,-2.6136,-2.6168,-2.6227,-2.6291,-2.633,-2.6385,-2.6439,-2.6479,-2.6528,-2.6534,-2.6534,-2.6534,-2.6412,-2.638,-2.6466,-2.6465,-2.6464,-2.6464,-2.6464,-2.6269,-2.6242,-2.6333,-2.6372,-2.645,-2.6513,-2.6533,-2.6614,-2.665,-2.6687,-2.6681,-2.6588,-2.6586,-2.6577,-2.6551,-2.6676,-2.6676,-2.6676,-2.6676,-2.6334,-2.6334,-2.6431,-2.6494,-2.6557,-2.6584,-2.669,-2.6734,-2.6775,-2.6799,-2.6784,-2.6752,-2.6742,-2.6746,-2.6733,-2.6709,-2.6871,-2.6872,-2.6872,-2.6417,-2.6424,-2.6509,-2.6547,-2.6609,-2.6663,-2.6763,-2.6837,-2.6879,-2.688,-2.6819,-2.6811,-2.6758,-2.674,-2.6738,-2.6718,-2.6674,0,0]},{"header":{"parameterUnit":"m.s-1","parameterCategory":1,"la1":30.2992,"la2":30.254,"lo1":-89.0895,"lo2":-89.0443,"dy":0.0025,"dx":0.0025,"nx":19,"ny":19,"refTime":"2026-03-25T03:00:00:Z","depth":0,"parameterNumber":3,"parameterNumberName":"V-component_of_WINDS"},"data":[0,0,0,0.961,0.9612,0.9718,0.9719,0.9835,0.9836,0,0,0,0,0,0,0,0,0,0,0,0.9565,0.9566,0.961,0.9612,0.9718,0.9719,0.9835,0.9836,0,0,0,0,0,0,0,0,0,0,0,0.9565,0.9566,0.9566,0.9613,0.9718,0.9719,0.9835,0.9762,0,0,0,0,0,0,0,0,0,0,0.9662,0.9608,0.9566,0.9566,0.9613,0.9718,0.9719,0.9759,0.9767,0.9778,0,0.9784,0,0.9811,0.9842,0.9843,0,0,0,0.9623,0.9601,0.9642,0.9566,0.9614,0.9718,0.9673,0.9763,0.9772,0.9788,0.9786,0.979,0.9813,0.9843,0.9843,0.9873,0.9872,0,0,0.9617,0.9578,0.9635,0.9647,0.9627,0.967,0.9677,0.9769,0.9764,0.9786,0.9794,0.9815,0.9844,0.9844,0.9873,0.9872,0,0,0,0.9593,0.9573,0.9612,0.9641,0.9662,0.9673,0.968,0.976,0.9776,0.9795,0.9817,0.9844,0.9845,0.9873,0.9873,0.9816,0,0,0,0.959,0.9559,0.9609,0.9586,0.9659,0.9712,0.9669,0.9769,0.9781,0.9816,0.9844,0.9846,0.9874,0.9873,0.9819,0.9796,0,0,0,0.9563,0.9556,0.9567,0.9584,0.9628,0.9711,0.9733,0.9773,0.9794,0.9843,0.9847,0.9874,0.9873,0.9821,0.98,0.9791,0,0,0,0.9524,0.9516,0.9565,0.9566,0.9626,0.9675,0.9733,0.9771,0.9807,0.9845,0.9874,0.9873,0.9822,0.9802,0.9793,0.9776,0.9766,0,0,0.9493,0.9511,0.9515,0.9562,0.9591,0.9662,0.9685,0.9755,0.9796,0.9845,0.9846,0.9818,0.98,0.9792,0.9722,0.9713,0,0,0,0.9492,0.9494,0.951,0.9541,0.9594,0.9637,0.9708,0.9734,0.9777,0.9813,0.9815,0.9805,0.9802,0.9796,0.9788,0.9788,0.9868,0.9869,0.9869,0.9392,0.9444,0.9453,0.9518,0.9547,0.962,0.9649,0.9697,0.9743,0.9742,0.9756,0.9707,0.9698,0.9693,0.9692,0.9753,0.9752,0.9752,0.9752,0.9351,0.9361,0.942,0.945,0.9506,0.9532,0.9603,0.9634,0.9667,0.9701,0.9701,0.9732,0.9682,0.9684,0.9748,0.9749,0.975,0.975,0.975,0.929,0.9304,0.9335,0.9385,0.9418,0.9485,0.9514,0.9565,0.9613,0.9612,0.9633,0.9634,0.9641,0.9619,0.9619,0.9618,0.9618,0.9618,0.9618,0.9214,0.9251,0.9268,0.9323,0.935,0.9391,0.9464,0.9493,0.9537,0.9571,0.9572,0.9616,0.9667,0.9678,0.9616,0.9616,0.9616,0.9617,0.9617,0.9151,0.9173,0.9199,0.9226,0.9295,0.9324,0.9388,0.9441,0.9471,0.9484,0.9529,0.9559,0.9582,0.9588,0.9598,0.9518,0.9518,0.9518,0.9518,0.9099,0.9116,0.9153,0.9192,0.9236,0.9296,0.9325,0.9383,0.9446,0.9468,0.9488,0.9505,0.9509,0.953,0.9537,0.9547,0.9456,0.9456,0.9456,0.9063,0.9086,0.91,0.916,0.9218,0.9266,0.9295,0.9338,0.9415,0.9454,0.9487,0.9489,0.9518,0.9525,0.9563,0.9574,0.9593,0,0]}]]